Alma, GA

6:49 PM EST on December 04, 2016 (GMT -0500)
Bacon County

Weather History for KAMG - October, 2013

Change the Weather History Date:

Saturday, October 19, 2013

  Actual Average Record
Temperature  
Mean Temperature 74 °F 68 °F  
Max Temperature 83 °F 79 °F 90 °F (2006)
Min Temperature 64 °F 56 °F 39 °F (2015)
Degree Days  
Heating Degree Days 0 2  
Month to date heating degree days 0 16  
Since 1 July heating degree days 0 18  
Cooling Degree Days 9 4  
Month to date cooling degree days 128 117  
Year to date cooling degree days 2283 2387  
Growing Degree Days 23 (Base 50)    
Moisture  
Dew Point 67 °F    
Average Humidity 83    
Maximum Humidity 100    
Minimum Humidity 65    
Precipitation  
Precipitation 0.03 in 0.10 in 1.61 in (1950)
Month to date precipitation 0.60 1.97  
Year to date precipitation 45.59 39.82  
Snow  
Snow 0.00 in 0.00 in 0.00 in ()
Month to date snowfall 0.0 0.0  
Since 1 July snowfall 0.0 0.0  
Since 1 September snowfall 0.0 0.0  
Snow Depth 0.00 in    
Sea Level Pressure  
Sea Level Pressure 29.94 in    
Wind  
Wind Speed 3 mph (NW)    
Max Wind Speed 17 mph    
Max Gust Speed 22 mph    
Visibility 5 miles    
Events Fog    
T = Trace of Precipitation, MM = Missing Value Source: NWS Daily Summary

Daily Weather History Graph

Daily Weather History Graph

Search for Another Location

Airport or City:

Trip Planner

Search our weather history database for the weather conditions in past years. The results will help you decide how hot, cold, wet, or windy it might be!

Date:

Astronomy

Oct. 19, 2013 Rise Set
Actual Time 7:36 AM EDT 6:53 PM EDT
Civil Twilight 7:11 AM EDT 7:17 PM EDT
Nautical Twilight 6:43 AM EDT 7:46 PM EDT
Astronomical Twilight 6:14 AM EDT 8:14 PM EDT
Moon 7:24 PM EDT (10/19) 8:09 AM EDT (10/19)
Length of Visible Light 12h 06m
Length of Day
11h 17m
Waxing Gibbous, 99% of the Moon is Illuminated
Oct 19
Waxing Gibbous
Oct 26
Last Quarter
Nov 3
New
Nov 10
First Quarter
Nov 17
Full

Hourly Weather History & Observations

Time (EDT) Temp. Heat Index Dew Point Humidity Pressure Visibility Wind Dir Wind Speed Gust Speed Precip Events Conditions
12:53 AM 68.0 °F - 68.0 °F 100% 29.94 in 3.0 mi Calm Calm - N/A   Mostly Cloudy
12:55 AM 68.0 °F - 68.0 °F 100% 29.95 in 1.8 mi Calm Calm - N/A   Mostly Cloudy
1:10 AM 68.0 °F - 68.0 °F 100% 29.95 in 3.0 mi Calm Calm - N/A   Overcast
1:53 AM 68.0 °F - 68.0 °F 100% 29.93 in 6.0 mi Calm Calm - N/A   Overcast
2:25 AM 66.2 °F - 66.2 °F 100% 29.94 in 1.8 mi Calm Calm - N/A   Scattered Clouds
2:41 AM 68.0 °F - 68.0 °F 100% 29.94 in 4.0 mi Calm Calm - N/A   Partly Cloudy
2:53 AM 66.9 °F - 66.9 °F 100% 29.93 in 4.0 mi Calm Calm - N/A   Scattered Clouds
3:15 AM 66.2 °F - 66.2 °F 100% 29.93 in 1.2 mi Calm Calm - N/A   Partly Cloudy
3:23 AM 66.2 °F - 66.2 °F 100% 29.94 in 0.5 mi Calm Calm - N/A Fog Fog
3:28 AM 66.2 °F - 66.2 °F 100% 29.93 in 2.0 mi NNW 3.5 mph - N/A   Clear
3:35 AM 66.2 °F - 66.2 °F 100% 29.93 in 5.0 mi Calm Calm - N/A   Clear
3:53 AM 66.9 °F - 66.9 °F 100% 29.93 in 6.0 mi Calm Calm - N/A   Clear
4:00 AM 64.4 °F - 64.4 °F 100% 29.93 in 1.2 mi Calm Calm - N/A   Clear
4:08 AM 64.4 °F - 64.4 °F 100% 29.93 in 0.5 mi Calm Calm - N/A Fog Fog
4:22 AM 66.2 °F - 66.2 °F 100% 29.93 in 2.0 mi Calm Calm - N/A   Scattered Clouds
4:30 AM 64.4 °F - 64.4 °F 100% 29.93 in 0.8 mi Calm Calm - N/A   Mostly Cloudy
4:42 AM 64.4 °F - 64.4 °F 100% 29.93 in 0.2 mi Calm Calm - N/A Fog Fog
4:53 AM 64.9 °F - 64.9 °F 100% 29.93 in 0.5 mi Calm Calm - N/A Fog Fog
4:59 AM 64.4 °F - 64.4 °F 100% 29.93 in 2.0 mi Calm Calm - N/A   Mostly Cloudy
5:06 AM 64.4 °F - 64.4 °F 100% 29.93 in 7.0 mi Calm Calm - N/A   Mostly Cloudy
5:53 AM 68.0 °F - 68.0 °F 100% 29.94 in 6.0 mi Calm Calm - N/A   Mostly Cloudy
6:06 AM 66.2 °F - 66.2 °F 100% 29.94 in 5.0 mi WNW 3.5 mph - N/A   Mostly Cloudy
6:10 AM 66.2 °F - 66.2 °F 100% 29.94 in 5.0 mi Calm Calm - N/A   Mostly Cloudy
6:37 AM 66.2 °F - 66.2 °F 100% 29.94 in 1.8 mi NNW 3.5 mph - N/A   Overcast
6:53 AM 66.9 °F - 66.9 °F 100% 29.94 in 0.5 mi NNW 3.5 mph - N/A Fog Fog
7:20 AM 66.2 °F - 66.2 °F 100% 29.95 in 1.0 mi Calm Calm - N/A   Overcast
7:53 AM 66.9 °F - 66.9 °F 100% 29.94 in 0.5 mi Calm Calm - N/A Fog Fog
8:00 AM 66.2 °F - 66.2 °F 100% 29.95 in 0.2 mi Calm Calm - N/A Fog Fog
8:35 AM 66.2 °F - 66.2 °F 100% 29.96 in 0.8 mi Calm Calm - N/A   Overcast
8:44 AM 68.0 °F - 68.0 °F 100% 29.96 in 1.8 mi Calm Calm - N/A   Mostly Cloudy
8:51 AM 68.0 °F - 68.0 °F 100% 29.96 in 2.5 mi Calm Calm - N/A   Mostly Cloudy
8:53 AM 68.0 °F - 68.0 °F 100% 29.96 in 3.0 mi Calm Calm - N/A   Mostly Cloudy
9:06 AM 68.0 °F - 68.0 °F 100% 29.97 in 2.5 mi Calm Calm - N/A   Mostly Cloudy
9:30 AM 68.0 °F - 68.0 °F 100% 29.97 in 3.0 mi WNW 3.5 mph - N/A   Overcast
9:53 AM 69.1 °F - 69.1 °F 100% 29.97 in 4.0 mi WNW 3.5 mph - N/A   Overcast
10:07 AM 69.8 °F - 69.8 °F 100% 29.98 in 5.0 mi WNW 4.6 mph - N/A   Overcast
10:53 AM 75.0 °F - 71.1 °F 87% 29.96 in 9.0 mi Calm Calm - N/A   Mostly Cloudy
11:53 AM 77.0 °F - 71.1 °F 82% 29.95 in 10.0 mi West 4.6 mph - N/A   Scattered Clouds
12:53 PM 80.1 °F 83.6 °F 71.1 °F 74% 29.93 in 10.0 mi Variable 4.6 mph - N/A   Mostly Cloudy
1:53 PM 81.0 °F 84.9 °F 71.1 °F 72% 29.91 in 10.0 mi West 5.8 mph - N/A   Mostly Cloudy
2:53 PM 82.0 °F 85.5 °F 69.1 °F 65% 29.89 in 10.0 mi NW 5.8 mph - N/A   Mostly Cloudy
3:53 PM 79.0 °F - 69.1 °F 72% 29.88 in 10.0 mi NW 9.2 mph - N/A   Overcast
4:53 PM 73.0 °F - 66.0 °F 79% 29.92 in 10.0 mi NNW 9.2 mph - 0.03 in   Overcast
5:53 PM 72.0 °F - 63.0 °F 73% 29.91 in 10.0 mi North 3.5 mph - N/A   Scattered Clouds
6:53 PM 70.0 °F - 66.0 °F 87% 29.92 in 10.0 mi Calm Calm - N/A   Overcast
7:53 PM 69.1 °F - 64.9 °F 87% 29.91 in 10.0 mi Calm Calm - N/A   Mostly Cloudy
8:53 PM 66.9 °F - 66.9 °F 100% 29.92 in 10.0 mi Calm Calm - N/A   Scattered Clouds
9:53 PM 66.9 °F - 64.0 °F 90% 29.94 in 10.0 mi North 5.8 mph - N/A   Scattered Clouds
10:53 PM 66.9 °F - 63.0 °F 87% 29.95 in 10.0 mi North 4.6 mph - N/A   Overcast
11:53 PM 66.0 °F - 62.1 °F 87% 29.96 in 10.0 mi North 4.6 mph - N/A   Overcast